Погода в Славгороде

Хотите узнать прогноз погоды в Славгороде? Тогда Вам сюда: Погода в Славгороде

Поиск расширенной информации на нашем сайте:

Полезная информация:

Новости сайта



02.01.2020
Опубликован Долгосрочный прогноз погоды по городам России и ближнего зарубежья на январь 2020 года.
Карты: Прогноз на январь и февраль 2020 года, Сравнение прогнозируемой аномалии приземной температуры воздуха на январь 2020 года по разным моделям.




Погода в Славгороде - сегодня

Время (UTC), дата Ветер
(°,м/с) 
Видим.   Явления Облачность Т
(°С)
Тd
(°С)
f(%) Тe
(°С)
Pmin
(гПа)
dP
(гПа)
Po
(мм)
O2
(г/м3)
Тmin Tmax R s Состояние
почвы
00 16.01.22 200 (Ю) 20000 м    4/0 верхняя 
[Ci sp]
-10.8 -14 77 -15  1014.8  -0.3  749  315  -10.9      20  неравномерный
сухой снег
100% 
03 16.01.22 170 (Ю) 20000 м    3/0 верхняя 
[Ci sp]
-11.8 -14.7 79 -15  1014.7  -0.2  749  317  -12.8         
06 16.01.22 130 (ЮВ) 20000 м    10/10 800 м кучево-дожд. 
[Cb cap]
-8.2 -11.9 75 -11  1013.2  -1.3  748  312           
09 16.01.22 130 (ЮВ) 2000 м  слаб. ливневой снег  10/10 720 м кучево-дожд. 
[Cb cap]
-6.4 -8.1 88 -10  1008.8  -4.2  745  308           
12 16.01.22 170 (Ю) 4{11}  20000 м  в посл. час ливневой дождь [диам. гололёда 2 мм]  10/10 700 м кучево-дожд. 
[Cb cap]
+0.2 -1 92 -2  1005.9  -2.5  743  299    +0.3     
15 16.01.22 200 (Ю) 9-12{14}  20000 м  [диам. гололёда 2 мм]  10/10 660 м кучево-дожд. 
[Cb cap]
+2 -0.9 81 -2  1006  0.3  743  297           
18 16.01.22 220 (ЮЗ) 7-10{13}  20000 м    10/10 700 м кучево-дожд. 
[Cb cap]
+2.6 +0.3 85 -1  1008.3  2.2  745  297           
21 16.01.22 250 (З) 4{11}  20000 м    10/8 700 м кучево-дожд., верхняя 
[Cb cap|Ci sp]
+0.9 -2.2 80 -1  1011.9  3.5  747  300           
00 17.01.22 240 (ЮЗ) 3{10}  20000 м    6/0 верхняя 
[Ci sp]
-2.8 -6.1 78 -5  1014.5  2.3  749  306  -2.8      19  неравномерный
мокрый или
старый снег
100% 
03 17.01.22 260 (З) 20000 м    10/0 средняя, верхняя 
[Ac trans|Ci sp]
-4.8 -7.8 79 -8  1017  2.4  751  309  -4.9         
06 17.01.22 270 (З) 5{10}  20000 м    10/0 верхняя 
[Ci sp]
-6.7 -10.4 75 -11  1018.4  1.2  752  311           
09 17.01.22 250 (З) 20000 м    10/0 верхняя 
[Ci sp]
-8.1 -12.9 68 -11  1020.7  2.2  753  314           
12 17.01.22 230 (ЮЗ) 20000 м    4/0 верхняя 
[Ci sp]
-10.2 -14 74 -14  1022.1  1.3  754  317    -2.8       
15 17.01.22 210 (ЮЗ) 20000 м    3/0 верхняя 
[Ci sp]
-11.1 -14.5 76 -16  1023.8  1.5  755  319           
18 17.01.22 220 (ЮЗ) 4{10}  20000 м    10/0 средняя 
[Ac trans]
-11 -14.6 75 -15  1024.8  756  319           
21 17.01.22 220 (ЮЗ) 20000 м    10/10 1080 м 
[Sc]
-10.5 -13.5 79 -15  1025.6  0.9  757  318           
00 18.01.22 200 (Ю) 20000 м    3/3 1000 м 
[Sc]
-12.1 -14.4 83 -16  1026.9  1.2  758  321  -12.5      19  неравномерный
мокрый или
старый снег
100% 
03 18.01.22 220 (ЮЗ) 20000 м    10/0 средняя, верхняя 
[Ac trans|Ci sp]
-12 -14.2 84 -15  1027.8  0.9  758  321  -13.2         
06 18.01.22 210 (ЮЗ) 20000 м    8/0 верхняя 
[Ci sp]
-11.5 -14.1 81 -16  1028.7  0.9  759  321           
09 18.01.22 230 (ЮЗ) 20000 м    8/0 верхняя 
[Ci sp]
-8.8 -11.8 79 -12  1028.6  759  317           
12 18.01.22 200 (Ю) 20000 м    4/0 верхняя 
[Ci sp]
-13 -14.9 86 -16  1029.4  0.5  759  323    -8       
15 18.01.22 240 (ЮЗ) 20000 м    ясно 
-12.6 -14.4 86 -15  1029.5  0.2  760  322           
18 18.01.22 190 (Ю) 4000 м  дымка  ясно 
-16.6 -18.9 82 -19  1029.5  -0.3  759  327           
21 18.01.22 190 (Ю) 2000 м  дымка  ясно 
-16.9 -19.4 81 -17  1029.6  0.1  759  328           
00 19.01.22 190 (Ю) 4000 м  дымка  ясно 
-16 -18.3 82 -16  1029  -0.6  759  326  -18.4      19  неравномерный
мокрый или
старый снег
100% 
Время (UTC), дата Ветер
(°,м/с) 
Видим.   Явления Облачность Т
(°С)
Тd
(°С)
f(%) Тe
(°С)
Pmin
(гПа)
dP
(гПа)
Po
(мм)
O2
(г/м3)
Тmin Tmax R s Состояние
почвы

Для получения пояснительной информации подведите курсор к названию столбца.

ПОГОДА в Славгороде - архив

Всё, что Вы хотите узнать о погоде в Славгороде - удобно и подробно!

Выберите нужную дату (начиная с 1 января 2019* года) и нажмите кнопку "Найти".
Будут отображены архивные сводки погоды по пункту Славгород, начиная с указанной даты.


Отображать данные в формате CSV (для использования в таблицах Excel)


Внимание! Наш архив погоды предназначен исключительно для личного некоммерческого использования в познавательных целях. Если Вам необходимы официальные справки о состоянии погоды (для производственных, юридических, коммерческих и т.п. целей), обращайтесь в органы Росгидромета.

*Примечание: данная дата относится к архиву по метеостанциям СССР (Россия, СНГ, Балтия).
Архив по метеостанциям Зарубежной Европы и Азии (кроме Китая) хранится 10 дней, по другим регионам земного шара (Китай, Африка, Америка, Австралия, Океания) - 1 день.

Славгород - район местоположения метеостанции


Название, широта, долгота, высота метеостанции:
Славгород 53°ш. 78.6°д. 126 м над ур. моря [Российская Федерация]

Дополнительная информация

В oтличие oт бoльшинства пoгoдных сайтoв мы публикуем пoдрoбную метеoинфoрмацию в детальнoм прoфессиoнальнoм фoрмате.

Характеристики температуры и влажнoсти вoздуха измеряются на высoте 2 м в тени вдали oт зданий и деревьев.
Скoрoсть ветра измеряется на высoте 10 м (на урoвне рoста челoвека скoрoсть ветра ниже в 1.5-2 раза). Если метеoстанция нахoдится в гoрoде или в лесу, тo скoрoсть ветра занижена на 2-4 м/с пo сравнению с oткрытым местoм. Скoрoсть ветра над акватoриями крупных рек и oзёр, а также на вершинах хoлмoв на 2-5 м/с выше, чем в oбычных услoвиях.
Атмoсфернoе давление в разных тoчках местнoсти мoжет значительнo oтличаться oт давления на метеoстанции, в зависимoсти oт услoвий рельефа (при пoдъёме на 10 м давление пoнижается примернo на 1 мм рт.ст.).